{"data":{"norad_id":65389,"epoch":"2026-09-20T14:14:34.247616Z","epoch_age_seconds":106822,"freshness":"FRESH","line1":"1 65389U 25191L   26263.59345194 -.00006394  00000+0 -19615-3 0  9996","line2":"2 65389  97.2840 129.6261 0002760  95.8237 264.3320 15.33400476 59657","mean_motion":15.33400476,"eccentricity":0.000276,"inclination_deg":97.284,"raan_deg":129.6261,"arg_perigee_deg":95.8237,"mean_anomaly_deg":264.332,"bstar":-0.00019615,"rev_number":5965,"period_min":93.908931328648,"perigee_km":463.78675749088,"apogee_km":467.56454207356,"semimajor_km":6843.8126497822,"source":"CELESTRAK","updated_at":"2026-09-21T09:00:35.599038Z"}}